Location: ??????????
(44.2167°N, 135.5333°E)
Time: 14:33:22
(UTC+00:00)

Cosmos 1943 Rocket - Pass Details

Date: 15 June 2025
Orbit: 810 x 843 km, 71.0° (Epoch: 16 July)

Event Time Altitude Azimuth Distance (km) Brightness Sun altitude
Exits shadow 17:12:29 24° 227° (SW) 1,626 3.1 -15.8°
Maximum altitude 17:15:44 58° 299° (WNW) 941 2.4 -15.5°
Drops below altitude 10° 17:21:10 10° 19° (NNE) 2,415 5.8 -15.0°
Sets 17:23:40 0° 23° (NNE) 3,355 7.0 -14.7°
